TimeEDT,TemperatureF,Dew PointF,Humidity,Sea Level PressureIn,VisibilityMPH,Wind Direction,Wind SpeedMPH,Gust SpeedMPH,PrecipitationIn,Events,Conditions,WindDirDegrees,DateUTC
12:11 AM,69.8,62.6,78,29.70,10.0,Variable,4.6,-,N/A,,Overcast,0,2013-06-30 04:11:00
12:38 AM,69.8,62.6,78,29.70,10.0,East,5.8,-,N/A,,Mostly Cloudy,80,2013-06-30 04:38:00
12:53 AM,70.0,63.0,78,29.70,10.0,ENE,4.6,-,N/A,,Partly Cloudy,70,2013-06-30 04:53:00
1:17 AM,69.8,64.4,83,29.71,10.0,NE,10.4,-,N/A,,Mostly Cloudy,40,2013-06-30 05:17:00
1:53 AM,69.1,63.0,81,29.70,10.0,NE,9.2,-,N/A,,Overcast,50,2013-06-30 05:53:00
2:20 AM,69.8,64.4,83,29.72,10.0,East,4.6,-,N/A,,Overcast,100,2013-06-30 06:20:00
2:53 AM,69.1,64.0,84,29.71,10.0,East,3.5,-,N/A,,Mostly Cloudy,90,2013-06-30 06:53:00
3:53 AM,68.0,64.9,90,29.71,10.0,NE,4.6,-,N/A,,Mostly Cloudy,50,2013-06-30 07:53:00
4:34 AM,68.0,64.4,88,29.72,10.0,ENE,12.7,-,N/A,,Mostly Cloudy,60,2013-06-30 08:34:00
4:44 AM,68.0,64.4,88,29.72,10.0,ENE,12.7,-,N/A,,Scattered Clouds,60,2013-06-30 08:44:00
4:53 AM,68.0,64.0,87,29.72,10.0,ENE,10.4,-,N/A,,Mostly Cloudy,60,2013-06-30 08:53:00
5:53 AM,66.9,61.0,81,29.73,10.0,ENE,13.8,-,N/A,,Clear,60,2013-06-30 09:53:00
6:53 AM,66.9,61.0,81,29.75,10.0,ENE,9.2,-,N/A,,Clear,70,2013-06-30 10:53:00
7:13 AM,66.2,60.8,83,29.76,10.0,ENE,9.2,-,N/A,,Partly Cloudy,60,2013-06-30 11:13:00
7:53 AM,66.9,61.0,81,29.76,10.0,ENE,9.2,-,N/A,,Partly Cloudy,70,2013-06-30 11:53:00
8:53 AM,68.0,60.1,76,29.79,10.0,East,4.6,-,N/A,,Mostly Cloudy,80,2013-06-30 12:53:00
9:53 AM,68.0,61.0,78,29.79,10.0,East,5.8,-,0.00,,Overcast,90,2013-06-30 13:53:00
10:53 AM,69.1,62.1,78,29.80,10.0,NNE,5.8,-,0.00,,Clear,30,2013-06-30 14:53:00
11:53 AM,69.1,64.0,84,29.81,9.0,NNE,10.4,-,0.00,Rain,Light Rain,30,2013-06-30 15:53:00
12:53 PM,68.0,64.0,87,29.82,10.0,NNE,11.5,-,0.01,,Mostly Cloudy,20,2013-06-30 16:53:00
1:53 PM,69.1,64.9,87,29.82,10.0,NNE,12.7,-,0.01,Rain,Light Rain,30,2013-06-30 17:53:00
2:16 PM,69.8,64.4,83,29.83,10.0,NNE,15.0,19.6,0.00,,Mostly Cloudy,20,2013-06-30 18:16:00
2:24 PM,69.8,64.4,83,29.83,10.0,NNE,13.8,-,0.00,,Mostly Cloudy,20,2013-06-30 18:24:00
2:53 PM,70.0,64.0,81,29.82,10.0,NNE,15.0,-,0.00,,Overcast,20,2013-06-30 18:53:00
3:20 PM,73.4,66.2,78,29.83,10.0,NNE,13.8,-,N/A,,Partly Cloudy,20,2013-06-30 19:20:00
3:53 PM,71.1,64.0,78,29.82,10.0,NNE,15.0,-,N/A,,Scattered Clouds,30,2013-06-30 19:53:00
4:53 PM,72.0,64.9,78,29.82,10.0,NE,12.7,19.6,N/A,,Clear,40,2013-06-30 20:53:00
5:53 PM,72.0,63.0,73,29.83,10.0,NNE,11.5,-,N/A,,Mostly Cloudy,30,2013-06-30 21:53:00
6:53 PM,71.1,63.0,75,29.83,10.0,NNE,15.0,-,N/A,,Mostly Cloudy,20,2013-06-30 22:53:00
7:53 PM,70.0,62.1,76,29.86,10.0,NE,12.7,-,N/A,,Mostly Cloudy,40,2013-06-30 23:53:00
8:53 PM,69.1,63.0,81,29.86,10.0,NNE,12.7,-,N/A,,Mostly Cloudy,30,2013-07-01 00:53:00
9:53 PM,69.1,62.1,78,29.87,10.0,NE,9.2,-,N/A,,Mostly Cloudy,50,2013-07-01 01:53:00
10:53 PM,69.1,64.0,84,29.88,10.0,ENE,8.1,-,N/A,,Mostly Cloudy,60,2013-07-01 02:53:00
11:53 PM,69.1,64.0,84,29.89,10.0,NE,9.2,-,N/A,,Partly Cloudy,40,2013-07-01 03:53:00